Temp
4 6 6 5 5 6 3 4 2 8 6 8 8 9 11 11 9 8 8 8 7 7 7 8 8 8 8 8 8 8 8 8 8 8 8 9 9 10 10 10 10 11 11 11
-2 5 6 5 6 6 6 5 5 5 5 8 9 10 11 10 9 8 8 8 7 6 7 7 8 8 8 8 8 8 9 9 8 8 8 8 8 9 9 9 9 9 9 9
3 7 3 2 4 6 7 7 7 5 7 11 10 9 9 10 10 8 8 7 7 6 6 6 7 7 8 8 8 8 9 8 8 8 8 8 8 8 8 8 8 9 9 9
2 3 5 10 9 8 7 9 8 8 8 9 10 11 11 10 10 9 8 7 7 6 6 6 6 6 6 7 7 8 8 8 8 8 8 8 8 8 8 8 8 9 8 8
2 3 8 10 7 7 7 8 9 9 9 10 11 10 9 10 9 8 8 8 7 6 6 6 6 6 6 6 6 7 7 7 7 7 8 8 8 8 7 7 7 7 7 8
2 4 8 12 9 10 10 8 11 9 8 10 9 5 5 10 10 9 8 7 7 7 7 6 6 6 5 5 5 6 6 6 6 6 7 7 7 7 7 7 6 6 7 7
1 3 6 10 8 9 11 11 11 12 12 11 6 7 10 10 9 8 8 7 7 6 6 6 6 6 5 5 5 5 5 5 5 5 6 6 5 5 5 5 5 5 5 5
3 3 5 8 7 8 11 13 13 13 12 11 11 11 10 9 9 8 8 7 6 6 6 6 6 5 5 5 5 5 5 5 4 4 4 4 4 5 4 4 4 4 4 4
6 7 9 9 11 12 12 11 12 12 12 12 11 11 10 9 9 8 8 7 7 6 6 6 6 5 5 4 4 4 4 4 4 4 4 4 4 4 4 4 4 3 3 3
9 10 10 12 12 13 12 10 11 11 11 10 10 11 10 10 9 9 8 7 7 6 6 6 5 5 5 4 4 4 3 3 3 3 3 3 3 3 2 2 2 2 2 2
6 9 10 11 12 12 12 12 11 11 10 10 9 9 9 9 9 9 9 8 8 7 6 6 5 5 5 4 4 3 3 3 3 3 3 3 3 3 2 2 2 2 2 2
9 11 11 11 13 13 12 12 12 11 11 10 10 10 10 10 10 9 9 8 7 7 7 7 6 4 4 4 3 3 2 2 2 2 2 2 2 2 2 2 2 2 2 2
9 10 10 11 11 11 11 11 11 11 10 10 10 9 9 9 10 9 8 7 7 7 7 6 6 5 4 3 3 2 2 2 2 1 1 1 1 2 2 2 2 1 1 1
8 8 9 9 9 10 11 11 10 10 9 9 8 8 8 8 8 7 8 9 8 7 6 6 6 6 5 4 3 2 1 1 1 1 0 0 -1 -1 0 1 1 1 1 1
8 8 8 9 9 10 10 9 9 9 9 8 8 8 8 8 8 8 8 8 8 6 5 5 5 5 4 3 2 2 1 1 1 0 0 -0 -1 0 0 0 0 0 -0 -1
8 8 8 8 8 9 9 9 8 8 8 7 7 7 7 8 7 8 8 8 7 7 6 5 5 4 3 2 2 1 0 0 0 0 0 -1 -1 -0 -0 -1 -1 -1 -2 -2
6 6 6 6 7 8 8 8 7 7 7 6 6 6 6 6 6 6 6 6 6 6 6 5 5 4 4 3 2 1 -0 -1 -1 -1 -2 -1 -1 -1 -1 -2 -2 -2 -2 -3
7 7 7 6 7 7 7 7 6 6 6 6 5 5 5 5 5 6 6 5 5 5 5 4 4 4 4 3 1 0 -1 -2 -2 -2 -2 -1 -1 -1 -2 -2 -2 -2 -3 -3
9 7 8 7 7 6 7 6 6 6 5 5 5 5 5 4 4 4 4 4 4 4 4 3 3 3 3 2 1 -1 -2 -2 -2 -2 -2 -2 -2 -3 -3 -3 -3 -3 -4 -4
8 8 7 7 7 6 6 6 6 6 5 5 4 5 5 5 4 4 3 3 4 4 3 3 2 2 1 1 0 -1 -2 -2 -1 -2 -2 -3 -3 -3 -3 -3 -3 -4 -4 -5
7 7 6 6 6 6 6 7 6 6 6 5 5 5 5 4 4 3 2 2 2 1 1 1 2 1 1 0 0 -0 -1 -1 -2 -2 -3 -3 -3 -3 -4 -4 -5 -5 -5 -6
7 6 6 6 6 6 6 6 6 6 6 5 5 5 5 4 4 3 2 1 1 0 0 0 0 0 0 -1 -1 -1 -2 -2 -3 -3 -3 -3 -4 -4 -4 -5 -5 -6 -6 -7
7 6 5 5 5 5 5 6 6 6 5 5 5 5 4 4 3 2 2 1 -1 -1 -1 -0 -0 -1 -1 -1 -2 -2 -3 -3 -3 -4 -4 -4 -4 -5 -5 -6 -6 -7 -7 -8
7 6 6 5 4 5 6 6 6 6 6 5 5 4 3 2 1 1 0 -1 -1 -1 -1 -1 -2 -2 -2 -2 -3 -3 -4 -4 -4 -4 -4 -5 -5 -5 -6 -6 -7 -8 -8 -9
5 6 6 5 5 5 5 5 6 6 6 6 5 4 3 2 0 -0 -0 -2 -2 -2 -2 -2 -2 -2 -3 -3 -4 -4 -4 -4 -4 -5 -5 -5 -6 -6 -7 -7 -8 -8 -9 -9
6 6 6 5 5 5 5 5 5 6 5 4 3 3 2 0 -1 -1 -2 -2 -2 -2 -2 -3 -3 -3 -4 -4 -4 -4 -4 -5 -5 -5 -6 -6 -7 -7 -8 -8 -9 -9 -9 -10
5 5 5 4 3 4 4 4 4 4 4 3 2 1 0 -1 -2 -2 -3 -3 -3 -3 -3 -3 -4 -4 -4 -4 -5 -5 -5 -5 -6 -6 -7 -7 -8 -8 -8 -9 -9 -10 -10 -10
Height
1497 1485 1483 1482 1482 1481 1488 1484 1493 1454 1456 1446 1443 1441 1438 1437 1439 1440 1440 1439 1438 1436 1433 1430 1427 1424 1421 1417 1415 1412 1408 1405 1403 1400 1398 1396 1396 1398 1400 1403 1404 1406 1409 1413
1509 1480 1478 1478 1470 1469 1472 1472 1471 1465 1454 1439 1434 1435 1435 1435 1437 1438 1438 1438 1437 1436 1434 1432 1429 1426 1424 1421 1418 1416 1414 1411 1409 1406 1405 1403 1402 1403 1404 1403 1406 1409 1407 1411
1499 1478 1485 1484 1459 1454 1453 1451 1453 1462 1441 1431 1432 1433 1433 1434 1434 1434 1434 1434 1434 1434 1433 1432 1430 1428 1426 1424 1423 1420 1419 1417 1415 1413 1412 1411 1410 1409 1410 1410 1411 1411 1414 1416
1506 1492 1486 1440 1437 1440 1442 1438 1440 1437 1431 1430 1430 1429 1429 1429 1429 1430 1431 1432 1432 1431 1431 1430 1430 1429 1427 1426 1425 1423 1422 1420 1419 1418 1417 1416 1417 1416 1416 1417 1417 1417 1418 1420
1508 1502 1462 1437 1442 1441 1441 1434 1424 1426 1425 1426 1426 1425 1424 1423 1424 1426 1428 1428 1429 1429 1429 1428 1428 1428 1427 1426 1426 1425 1423 1422 1422 1421 1420 1420 1419 1420 1420 1420 1420 1420 1421 1421
1502 1497 1469 1435 1437 1435 1435 1441 1416 1420 1422 1424 1425 1434 1424 1419 1419 1422 1424 1425 1425 1426 1426 1427 1426 1426 1426 1427 1427 1426 1425 1424 1423 1422 1422 1422 1422 1422 1422 1423 1423 1423 1422 1423
1502 1495 1460 1429 1433 1438 1439 1428 1413 1416 1417 1419 1422 1420 1418 1418 1418 1419 1421 1421 1422 1422 1423 1424 1424 1425 1425 1425 1425 1426 1426 1426 1426 1425 1424 1424 1424 1424 1424 1424 1424 1424 1425 1427
1485 1484 1467 1426 1436 1438 1420 1413 1411 1411 1413 1414 1414 1414 1412 1412 1413 1415 1415 1416 1417 1418 1419 1420 1421 1422 1423 1423 1424 1424 1425 1425 1426 1426 1426 1426 1426 1424 1425 1425 1425 1425 1426 1426
1454 1438 1416 1416 1412 1413 1413 1412 1413 1411 1409 1409 1408 1408 1410 1409 1408 1408 1409 1410 1411 1412 1414 1415 1417 1418 1419 1420 1421 1422 1423 1423 1424 1425 1425 1425 1424 1423 1424 1425 1424 1424 1425 1425
1437 1416 1414 1414 1411 1409 1409 1409 1409 1409 1407 1406 1404 1404 1403 1403 1403 1403 1403 1404 1405 1407 1408 1409 1411 1413 1414 1415 1418 1419 1420 1421 1422 1422 1422 1422 1421 1422 1423 1424 1423 1423 1423 1423
1427 1416 1412 1408 1402 1402 1400 1400 1400 1401 1401 1399 1399 1398 1398 1397 1397 1397 1397 1397 1397 1398 1400 1403 1404 1406 1409 1410 1412 1414 1416 1417 1418 1419 1419 1419 1419 1420 1419 1419 1419 1419 1419 1418
1408 1399 1407 1400 1398 1395 1393 1391 1392 1393 1392 1392 1391 1391 1391 1389 1389 1390 1391 1392 1392 1392 1393 1394 1396 1398 1400 1403 1406 1408 1409 1411 1413 1414 1415 1416 1416 1417 1417 1417 1417 1416 1416 1416
1399 1397 1401 1393 1390 1387 1387 1386 1384 1383 1382 1382 1384 1383 1383 1382 1382 1382 1382 1384 1385 1386 1388 1391 1392 1393 1395 1396 1399 1401 1403 1406 1408 1409 1411 1411 1411 1411 1413 1412 1413 1413 1413 1414
1393 1393 1387 1384 1380 1379 1378 1376 1376 1375 1373 1373 1373 1375 1374 1373 1374 1374 1374 1375 1378 1380 1381 1383 1385 1386 1388 1390 1392 1394 1398 1400 1402 1404 1406 1407 1407 1408 1409 1410 1410 1411 1411 1411
1377 1376 1376 1374 1372 1370 1368 1368 1365 1364 1363 1364 1365 1365 1366 1366 1365 1366 1368 1369 1371 1372 1374 1377 1380 1382 1384 1385 1388 1390 1393 1395 1397 1400 1401 1402 1403 1404 1405 1406 1407 1407 1408 1408
1368 1366 1366 1364 1360 1358 1357 1357 1354 1352 1353 1354 1355 1355 1356 1357 1358 1358 1361 1362 1362 1363 1366 1369 1372 1376 1379 1381 1383 1386 1389 1391 1393 1395 1396 1398 1399 1400 1401 1402 1402 1403 1403 1403
1361 1354 1355 1351 1351 1348 1346 1346 1345 1343 1343 1346 1346 1347 1347 1347 1351 1351 1352 1354 1355 1357 1360 1363 1365 1368 1371 1374 1377 1380 1383 1387 1388 1391 1392 1393 1394 1396 1397 1398 1399 1399 1400 1399
1347 1344 1343 1342 1341 1338 1336 1336 1336 1335 1334 1337 1340 1339 1339 1340 1343 1345 1345 1347 1349 1350 1353 1356 1360 1362 1365 1368 1371 1375 1378 1381 1383 1386 1388 1389 1391 1392 1393 1394 1394 1394 1395 1394
1336 1334 1330 1331 1330 1329 1328 1329 1328 1327 1328 1331 1334 1332 1331 1334 1336 1342 1342 1340 1341 1342 1343 1348 1354 1357 1359 1363 1367 1370 1374 1376 1378 1382 1384 1386 1388 1389 1389 1390 1390 1390 1389 1388
1326 1324 1323 1321 1322 1322 1321 1321 1320 1321 1324 1325 1330 1326 1325 1328 1329 1333 1336 1334 1334 1336 1340 1344 1349 1353 1356 1360 1362 1364 1367 1371 1373 1376 1379 1382 1384 1384 1384 1385 1384 1383 1382 1381
1319 1315 1315 1316 1316 1318 1317 1316 1316 1318 1321 1322 1326 1322 1320 1323 1325 1327 1328 1329 1332 1334 1337 1340 1343 1348 1352 1355 1358 1360 1362 1366 1369 1371 1374 1377 1379 1380 1381 1381 1380 1379 1378 1376
1315 1315 1314 1315 1316 1317 1316 1313 1314 1316 1318 1321 1323 1320 1318 1318 1319 1322 1324 1325 1329 1331 1333 1337 1341 1345 1348 1351 1355 1359 1362 1364 1366 1368 1370 1372 1375 1377 1376 1375 1375 1374 1372 1370
1315 1316 1314 1315 1315 1315 1315 1315 1313 1315 1318 1319 1320 1319 1317 1317 1318 1318 1318 1320 1323 1328 1329 1332 1338 1344 1346 1348 1352 1355 1359 1361 1364 1366 1369 1370 1370 1371 1371 1371 1370 1369 1367 1365
1312 1310 1315 1317 1317 1315 1312 1314 1314 1314 1316 1317 1316 1317 1317 1317 1317 1315 1315 1318 1321 1326 1330 1333 1335 1338 1342 1346 1349 1354 1357 1359 1362 1363 1365 1366 1366 1366 1366 1366 1365 1364 1362 1359
1312 1310 1311 1314 1314 1314 1313 1312 1313 1313 1315 1315 1315 1315 1315 1315 1317 1315 1316 1317 1320 1324 1328 1333 1335 1334 1339 1343 1347 1351 1354 1358 1360 1361 1362 1363 1363 1363 1363 1362 1361 1360 1357 1354
1308 1310 1309 1311 1312 1313 1313 1311 1312 1313 1312 1313 1313 1313 1313 1314 1315 1316 1316 1319 1321 1324 1327 1329 1331 1334 1338 1340 1344 1349 1352 1354 1357 1358 1359 1359 1360 1360 1360 1359 1358 1355 1353 1349
1304 1303 1304 1305 1307 1309 1309 1309 1312 1312 1311 1311 1310 1311 1312 1313 1314 1315 1317 1318 1321 1324 1326 1329 1332 1336 1339 1340 1343 1346 1349 1351 1353 1354 1356 1356 1356 1357 1356 1355 1354 1352 1350 1347
Wind_Speed
11 16 11 9 8 9 11 11 4 4 7 10 9 8 8 9 6 9 8 5 6 7 9 12 15 17 19 19 18 18 21 23 25 23 22 23 17 9 13 11 13 16 14 13
6 8 7 10 11 14 14 13 16 18 24 20 25 3 2 6 10 9 10 7 6 6 6 8 10 12 14 17 18 16 16 18 19 19 19 23 20 19 17 18 16 15 15 16
5 2 6 8 11 18 8 7 16 10 9 4 2 5 9 11 12 12 12 10 7 6 6 6 6 8 9 10 11 13 14 14 14 13 14 15 15 15 14 14 13 12 12 10
5 6 4 5 3 3 17 7 14 10 11 6 8 13 12 10 13 14 14 12 9 6 5 5 4 4 6 7 7 7 8 10 11 11 12 12 12 13 12 11 12 12 11 10
1 2 10 3 3 5 6 8 16 18 14 10 13 2 15 23 21 18 14 14 11 11 8 5 4 2 3 4 5 6 5 6 7 7 8 8 9 9 10 10 10 10 9 7
3 1 4 1 2 1 2 5 5 10 9 5 6 2 4 2 7 17 16 15 16 13 11 8 8 4 1 1 2 2 3 5 6 6 7 6 7 7 8 8 8 7 6 5
5 4 9 3 8 5 1 6 8 12 10 10 6 9 6 6 5 13 15 18 17 14 13 10 12 8 7 5 2 0 1 2 3 4 4 5 6 7 8 7 7 7 6 5
4 4 9 13 6 6 4 0 12 14 12 14 18 16 14 12 12 12 15 16 16 15 14 14 14 12 11 10 7 4 3 1 0 2 4 5 5 6 6 5 5 4 3 3
9 7 5 26 14 14 9 3 7 13 14 16 18 20 19 20 18 17 16 17 17 17 16 15 15 14 14 14 11 8 6 5 3 2 0 1 3 3 3 3 3 3 3 3
2 9 15 21 26 30 28 19 20 19 18 17 21 21 22 21 21 20 20 20 19 19 19 19 17 16 15 16 15 13 11 8 6 4 4 2 3 2 2 2 2 3 4 6
8 20 25 38 38 31 31 34 30 28 28 28 26 24 24 24 25 25 25 23 23 23 22 20 19 17 16 18 17 16 16 14 11 10 8 7 6 6 7 7 8 9 10 11
12 30 18 27 24 16 14 16 21 24 26 27 25 24 23 27 26 27 28 27 27 27 25 23 21 20 19 18 18 18 18 17 14 12 10 9 9 9 10 9 10 10 10 9
37 46 39 46 42 42 35 34 29 28 31 30 29 31 31 31 30 28 28 28 29 30 28 25 23 22 22 21 19 20 21 20 18 15 14 14 14 13 9 9 9 9 9 10
41 42 39 45 30 35 34 30 27 29 30 31 31 28 28 29 29 31 30 27 26 28 29 27 26 25 23 23 22 21 22 21 18 16 16 15 16 14 11 11 11 10 11 12
53 53 48 45 41 40 38 35 30 31 34 34 31 30 28 30 30 29 28 25 25 26 28 28 27 26 23 23 23 22 23 23 21 18 18 17 15 14 12 12 12 12 13 13
39 35 35 38 41 41 39 40 41 41 40 35 34 32 30 30 32 31 30 27 29 29 28 29 28 24 22 22 21 21 23 22 21 20 18 17 16 14 13 13 13 13 13 14
37 36 35 40 35 37 40 38 34 35 36 33 32 30 28 27 29 28 29 29 29 26 26 28 28 25 23 22 21 22 23 21 21 19 20 17 15 14 13 13 14 14 14 14
47 45 43 42 38 33 34 31 27 25 27 29 28 25 22 24 30 29 25 25 26 26 26 27 27 25 23 22 22 22 21 21 20 19 17 16 14 13 13 13 13 14 15 17
37 37 38 37 37 35 34 32 27 23 21 21 22 20 17 22 24 26 23 24 25 27 29 28 28 26 24 22 21 20 20 20 19 18 15 13 13 12 12 12 13 15 19 21
31 33 29 28 25 26 27 23 19 18 17 16 19 17 16 18 18 21 22 26 26 25 25 27 27 26 24 21 22 21 19 19 17 15 14 13 13 12 12 12 16 18 18 19
25 22 22 20 17 18 18 14 12 12 12 13 16 13 12 12 14 16 20 23 22 22 22 24 27 26 24 22 21 20 19 18 16 15 13 12 11 11 12 15 17 17 18 19
18 18 18 16 17 17 13 9 7 6 6 7 8 8 8 8 9 11 13 14 16 19 20 22 25 24 21 19 19 18 18 16 15 13 12 10 10 12 14 14 15 16 17 19
14 22 20 13 11 9 6 4 2 2 4 6 8 8 8 9 8 10 11 13 14 15 19 21 22 22 19 17 18 18 17 15 13 11 10 10 11 11 12 13 14 15 17 18
7 3 11 12 10 6 2 2 3 4 7 9 10 10 9 9 9 9 9 9 12 14 16 20 21 19 17 17 18 16 14 13 11 10 9 10 9 9 10 11 12 14 16 18
11 7 10 11 7 7 6 4 4 5 9 13 14 12 10 10 10 8 8 9 13 15 18 19 17 18 17 17 15 13 12 11 10 8 7 7 7 7 8 9 11 14 17 18
14 11 10 11 10 11 11 6 7 9 14 13 12 11 9 9 8 6 8 10 13 17 19 19 20 17 17 16 14 12 11 9 8 6 5 5 5 5 7 8 11 13 16 17
21 20 19 18 14 14 12 7 8 12 16 14 12 10 9 8 7 7 10 15 18 20 19 18 17 15 14 13 13 11 8 7 6 5 4 4 3 4 5 7 10 13 16 17
Wind_Direction
268 271 269 250 219 230 204 219 195 258 297 284 294 303 254 210 245 270 267 277 308 339 1 14 23 33 41 45 43 48 54 52 51 55 78 88 99 131 146 157 154 182 187 192
281 260 241 260 244 217 237 228 249 263 277 276 268 255 247 216 240 250 264 265 284 313 333 358 13 24 34 41 44 49 56 58 55 48 57 75 86 87 84 93 93 92 97 107
273 311 313 299 231 208 195 213 221 235 230 249 209 226 231 238 237 240 256 261 265 279 306 331 2 16 25 34 37 45 57 61 66 69 61 63 68 78 88 87 94 96 97 101
276 335 327 247 76 172 210 221 220 249 249 263 255 251 272 250 244 240 243 253 259 264 273 299 328 8 29 27 32 41 48 60 68 69 70 74 78 83 84 91 98 99 103 104
223 274 282 216 215 170 169 274 223 231 251 250 269 286 273 260 244 237 236 247 246 255 268 280 294 331 30 24 31 34 44 52 59 67 76 75 81 80 81 81 86 94 96 98
320 217 262 285 150 105 113 291 210 190 232 231 119 310 262 315 242 231 229 235 243 255 260 267 274 279 284 327 21 48 58 60 64 66 71 72 75 78 79 81 82 80 77 67
212 254 280 187 153 159 177 232 171 184 208 193 184 212 240 284 218 224 234 234 245 249 255 258 262 263 260 266 277 272 136 100 84 79 78 83 82 82 77 76 78 73 65 65
196 209 268 145 119 194 232 105 189 194 220 222 239 245 242 257 255 229 230 234 243 247 250 249 257 256 254 258 264 258 244 224 102 87 86 86 87 79 74 68 69 74 53 22
191 221 213 186 213 232 243 242 255 238 235 233 241 247 249 253 258 252 243 241 246 247 245 246 252 251 249 253 255 254 248 241 239 238 218 89 60 48 27 28 29 16 5 352
281 264 257 249 255 261 255 261 265 263 258 253 253 260 257 251 252 254 253 250 249 245 244 247 251 248 247 247 250 249 249 250 242 242 250 280 323 339 320 348 16 345 339 344
264 269 279 276 270 265 267 265 266 274 263 260 260 260 260 258 255 253 254 251 244 246 250 250 249 249 244 241 244 241 242 246 249 258 271 286 296 303 314 317 320 328 333 333
257 254 270 279 283 287 277 269 263 265 266 263 257 257 267 261 260 255 252 250 247 247 246 246 244 246 249 244 241 236 236 238 240 246 253 263 274 288 297 302 303 311 317 321
254 264 266 268 276 278 277 276 272 269 267 264 261 269 269 263 259 258 250 249 248 249 250 245 242 242 246 250 248 235 233 235 239 244 253 269 271 276 287 292 295 300 302 305
247 263 260 261 260 268 272 270 272 270 267 262 264 263 264 263 261 253 246 250 253 251 247 242 239 241 243 246 246 235 229 234 238 244 250 258 264 268 279 287 283 282 285 290
256 259 259 266 272 272 269 269 262 263 267 264 262 262 257 261 259 254 247 249 250 249 247 241 239 240 238 238 239 230 226 228 236 242 246 261 256 259 268 274 276 280 286 292
262 266 267 262 262 270 265 264 264 262 265 263 262 264 267 265 261 255 250 248 240 243 245 236 235 238 237 237 234 224 225 227 231 236 243 249 258 266 264 263 270 281 287 292
262 266 263 265 263 265 264 266 267 265 268 270 268 269 267 261 259 256 249 247 245 250 249 241 236 232 232 233 230 223 226 225 236 234 247 254 259 256 256 263 274 280 286 291
260 265 266 264 268 265 266 265 266 269 263 265 266 265 253 250 254 255 250 247 247 247 244 237 231 229 228 224 223 223 227 222 230 239 248 252 250 251 259 268 276 283 291 297
275 271 277 270 268 261 258 260 265 270 272 267 260 256 256 252 254 258 256 250 244 240 237 228 226 225 223 220 217 224 216 219 229 238 241 242 249 259 266 273 282 294 302 304
286 279 271 270 266 258 255 259 263 260 258 259 259 254 254 254 252 253 253 249 252 251 239 227 223 220 218 217 222 219 216 223 225 228 233 242 251 254 260 279 293 298 301 304
294 297 283 274 265 257 253 256 253 253 257 256 259 261 263 265 261 255 247 246 247 242 237 227 221 216 216 220 226 219 217 217 220 223 233 243 246 261 281 292 299 303 307 308
342 313 296 285 277 269 255 241 235 241 248 259 263 265 270 263 264 260 252 255 250 239 229 219 216 214 214 221 224 221 216 215 219 225 228 233 256 278 290 296 301 306 308 310
341 333 317 301 280 250 233 230 220 259 284 293 295 294 289 282 267 253 243 240 228 232 221 212 208 207 213 223 216 209 212 217 222 223 231 251 274 287 294 301 307 311 315 316
295 288 300 274 249 234 226 280 309 329 320 312 311 307 298 286 271 259 246 230 220 220 212 203 195 202 219 208 203 208 213 215 215 225 250 273 282 291 301 308 315 319 322 323
273 238 231 227 230 294 278 266 291 315 313 307 306 303 296 285 275 273 249 209 203 201 193 192 200 209 199 198 201 205 206 211 226 247 261 272 283 298 310 320 324 328 332 334
265 252 253 248 253 251 264 264 278 286 288 294 290 284 280 275 265 243 213 203 190 185 188 192 203 200 193 193 195 197 203 217 240 250 256 270 287 310 323 330 338 344 346 347
257 260 257 241 232 234 241 265 286 292 285 280 277 274 263 249 231 212 190 185 184 188 195 199 198 187 189 189 190 196 208 222 226 235 248 263 292 311 328 345 355 358 358 359